Wind_Speed
29 32 33 33 34 34 34 32 29 27 26 28 33 35 35 36 36 34 36 35 33 30
26 28 30 30 30 31 30 30 28 25 25 25 27 30 32 35 35 34 34 34 33 33
22 23 25 26 28 28 27 26 25 24 24 25 25 27 29 31 31 30 31 32 29 30
15 17 19 22 23 23 23 23 22 23 24 25 26 26 28 30 29 29 28 29 29 31
11 13 15 18 19 19 21 21 22 22 24 25 26 26 28 30 29 28 29 29 28 30
11 13 16 18 18 18 20 21 22 22 24 25 25 26 28 28 27 28 29 27 27 31
13 15 17 19 18 19 19 21 22 21 23 24 25 26 26 27 28 29 28 30 33 32
14 17 19 20 19 19 20 20 20 21 22 23 25 27 27 28 29 29 31 33 34 35
17 20 21 21 19 18 18 18 19 21 23 25 28 29 29 29 27 29 31 32 31 31
19 22 22 21 19 17 16 16 18 21 23 27 29 30 29 28 28 30 29 28 28 25
19 22 21 20 20 18 18 18 20 23 25 26 28 28 29 28 26 26 29 30 28 29
20 19 18 18 20 20 20 21 22 23 24 25 26 26 27 23 21 24 26 24 26 27
17 16 18 20 20 19 17 17 20 23 24 25 26 26 24 21 17 18 20 22 24 25
16 18 18 18 17 18 19 20 22 22 22 22 20 21 19 15 13 17 16 16 15 18
Wind_Direction
261 262 266 270 273 276 278 282 283 277 269 263 258 256 254 252 252 249 247 244 243 242
267 266 269 274 276 277 279 280 280 277 271 264 258 255 254 252 250 248 248 248 247 245
278 275 275 275 273 276 280 280 278 276 269 265 261 256 253 253 252 248 247 249 246 245
289 283 278 274 277 279 282 282 279 274 269 263 259 255 253 253 252 250 249 249 248 249
306 295 286 283 284 285 283 281 276 272 267 264 260 257 252 252 251 248 247 247 247 251
313 302 295 290 288 285 283 281 276 271 268 267 265 262 259 257 257 255 254 254 252 253
327 317 308 300 295 291 289 284 280 277 276 274 273 269 264 261 259 258 258 257 254 252
319 317 315 312 303 299 293 290 288 284 280 277 273 270 266 261 258 255 256 257 257 257
311 317 318 316 311 305 301 298 294 289 286 282 279 278 275 269 261 259 257 257 259 258
309 316 317 316 312 312 312 309 303 296 289 286 287 287 283 274 258 262 260 260 262 262
314 317 319 318 317 318 319 315 310 307 303 297 295 296 292 284 260 254 261 261 260 262
318 318 322 325 325 322 320 315 313 310 309 304 303 308 306 295 266 255 259 264 268 266
319 325 324 319 318 319 320 317 316 316 313 310 309 311 310 303 271 261 260 265 265 267
321 324 321 320 324 322 321 319 318 313 310 310 316 316 317 312 268 256 260 263 267 272
Height
828 827 827 826 825 825 824 824 824 824 825 826 825 825 826 826 827 829 829 830 831 832
822 821 820 820 819 817 817 816 817 817 817 816 816 817 818 817 818 820 821 821 823 825
817 816 815 814 812 811 811 810 810 810 810 809 810 810 810 811 811 811 812 813 815 815
812 811 810 808 807 807 806 806 805 803 802 801 801 802 803 803 803 804 806 806 806 806
808 807 805 803 802 801 800 800 798 797 796 795 794 795 794 795 796 796 795 796 798 799
805 803 801 798 797 796 794 793 792 791 789 789 789 789 790 789 791 790 789 792 792 789
802 800 796 794 792 790 790 788 787 786 786 785 785 784 783 783 782 783 783 781 777 777
798 795 794 791 788 787 785 784 783 782 780 778 776 774 774 774 773 773 772 770 768 767
794 792 789 786 784 781 780 779 777 776 775 772 769 767 767 767 767 766 764 761 760 760
790 787 784 782 779 777 775 773 771 769 768 765 763 762 762 761 759 758 756 756 756 755
786 783 781 778 776 773 771 769 768 766 763 760 757 755 754 753 753 751 748 746 745 745
781 778 775 773 772 770 767 765 762 760 757 754 752 751 749 748 746 742 742 743 743 741
777 775 774 770 767 765 762 759 757 756 753 749 746 743 741 739 739 738 736 733 731 733
774 771 769 766 763 762 759 756 753 750 747 743 739 736 734 733 732 730 730 730 729 728